| time (UTC) | temp C | wind direction | speed KPH | gust KPH | rain 1hr cm | rain 24hr cm | rain mn cm | humidity % | barometer mb |
| 20260906090048 | 8 | 360 | 0.0 | 0.0 | 0.00 | 0.00 | 0.00 | 84 | 1012.7 |
| 20260906084547 | 8 | 360 | 0.0 | 0.0 | 0.00 | 0.00 | 0.00 | 84 | 1012.7 |
| 20260906083049 | 8 | 277 | 0.0 | 0.0 | 0.00 | 0.00 | 0.00 | 84 | 1012.7 |
| 20260906081546 | 8 | 279 | 0.0 | 0.0 | 0.00 | 0.00 | 0.00 | 84 | 1012.8 |
| 20260906080045 | 8 | 279 | 0.0 | 0.0 | 0.00 | 0.00 | 0.00 | 84 | 1012.8 |
| 20260906074543 | 8 | 279 | 0.0 | 0.0 | 0.00 | 0.00 | 0.00 | 84 | 1012.9 |
| 20260906073042 | 9 | 279 | 0.0 | 0.0 | 0.00 | 0.00 | 0.00 | 83 | 1012.9 |
| 20260906071540 | 9 | 279 | 0.0 | 0.0 | 0.00 | 0.00 | 0.00 | 83 | 1012.9 |
| 20260906070039 | 9 | 279 | 0.0 | 0.0 | 0.00 | 0.00 | 0.00 | 83 | 1012.8 |
| 20260906064538 | 9 | 276 | 0.0 | 0.0 | 0.00 | 0.00 | 0.00 | 83 | 1012.7 |
| 20260906063039 | 10 | 278 | 0.0 | 0.0 | 0.00 | 0.00 | 0.00 | 83 | 1012.7 |
| 20260906061538 | 10 | 278 | 0.0 | 0.0 | 0.00 | 0.00 | 0.00 | 84 | 1012.7 |
| 20260906060035 | 10 | 277 | 0.0 | 0.0 | 0.00 | 0.05 | 0.00 | 84 | 1012.8 |
| 20260906054539 | 10 | 248 | 0.0 | 0.0 | 0.00 | 0.05 | 0.00 | 84 | 1012.8 |
| 20260906053035 | 10 | 325 | 0.0 | 0.0 | 0.00 | 0.05 | 0.00 | 84 | 1012.8 |
| 20260906051546 | 10 | 296 | 0.0 | 0.0 | 0.00 | 0.05 | 0.00 | 84 | 1012.6 |
| 20260906050031 | 10 | 301 | 0.0 | 0.0 | 0.00 | 0.18 | 0.00 | 83 | 1012.6 |
| 20260906044529 | 10 | 290 | 0.0 | 0.0 | 0.00 | 0.18 | 0.00 | 83 | 1012.7 |
| 20260906043028 | 10 | 309 | 0.0 | 0.0 | 0.00 | 0.18 | 0.00 | 83 | 1012.7 |
| 20260906041527 | 10 | 321 | 0.0 | 0.0 | 0.00 | 0.18 | 0.00 | 83 | 1012.8 |
| 20260906040030 | 10 | 254 | 0.0 | 0.0 | 0.00 | 0.51 | 0.18 | 83 | 1012.7 |
| 20260906034523 | 10 | 343 | 0.0 | 0.0 | 0.00 | 0.51 | 0.18 | 82 | 1012.7 |
| 20260906033035 | 10 | 325 | 0.0 | 0.0 | 0.00 | 0.51 | 0.18 | 82 | 1012.8 |
| 20260906031520 | 11 | 323 | 0.0 | 0.0 | 0.00 | 0.51 | 0.18 | 82 | 1012.8 |
| 20260906030019 | 11 | 325 | 0.0 | 0.0 | 0.00 | 0.51 | 0.18 | 82 | 1013.0 |
| 20260906024533 | 11 | 5 | 0.0 | 0.0 | 0.00 | 0.51 | 0.18 | 81 | 1012.9 |
| 20260906023019 | 11 | 311 | 0.0 | 0.0 | 0.00 | 0.51 | 0.18 | 81 | 1013.0 |
| 20260906021514 | 11 | 303 | 0.0 | 0.0 | 0.00 | 0.51 | 0.18 | 80 | 1013.1 |
| 20260906020012 | 12 | 334 | 0.0 | 0.0 | 0.00 | 0.51 | 0.18 | 79 | 1013.2 |
| 20260906014515 | 12 | 340 | 0.0 | 0.0 | 0.00 | 0.51 | 0.18 | 79 | 1013.2 |
| 20260906013029 | 12 | 319 | 0.0 | 0.0 | 0.00 | 0.51 | 0.18 | 78 | 1013.2 |
| 20260906011507 | 12 | 40 | 0.0 | 0.0 | 0.00 | 0.51 | 0.18 | 78 | 1013.2 |
| 20260906010007 | 13 | 344 | 0.0 | 9.7 | 0.00 | 0.51 | 0.18 | 77 | 1013.2 |
| 20260906004506 | 13 | 23 | 0.0 | 0.0 | 0.00 | 0.51 | 0.18 | 77 | 1013.1 |
| 20260906003004 | 13 | 36 | 0.0 | 8.0 | 0.00 | 0.51 | 0.18 | 77 | 1012.9 |
| 20260906001503 | 13 | 50 | 0.0 | 4.8 | 0.00 | 0.51 | 0.18 | 77 | 1013.0 |
| 20260906000002 | 13 | 5 | 0.0 | 1.6 | 0.00 | 0.51 | 0.18 | 76 | 1012.9 |
| 20260905234503 | 13 | 20 | 0.0 | 0.0 | 0.00 | 0.51 | 0.18 | 75 | 1012.8 |
| 20260905233102 | 14 | 321 | 0.0 | 4.8 | 0.00 | 0.51 | 0.18 | 74 | 1012.8 |
| 20260905231559 | 15 | 57 | 0.0 | 0.0 | 0.00 | 0.51 | 0.18 | 73 | 1012.7 |
| 20260905230057 | 15 | 44 | 0.0 | 0.0 | 0.00 | 0.51 | 0.18 | 71 | 1012.5 |
| 20260905224609 | 16 | 97 | 1.6 | 8.0 | 0.00 | 0.51 | 0.18 | 69 | 1012.3 |
| 20260905223054 | 16 | 74 | 0.0 | 6.4 | 0.00 | 0.51 | 0.18 | 68 | 1012.2 |
| 20260905221609 | 16 | 17 | 1.6 | 6.4 | 0.00 | 0.51 | 0.18 | 67 | 1012.0 |
| 20260905220049 | 17 | 49 | 3.2 | 14.5 | 0.00 | 0.51 | 0.18 | 65 | 1011.7 |
| 20260905214548 | 17 | 42 | 0.0 | 16.1 | 0.00 | 0.51 | 0.18 | 64 | 1011.6 |
| 20260905213059 | 17 | 344 | 3.2 | 9.7 | 0.00 | 0.51 | 0.18 | 65 | 1011.6 |
| 20260905211547 | 17 | 26 | 1.6 | 14.5 | 0.00 | 0.51 | 0.18 | 64 | 1011.4 |
| 20260905210051 | 18 | 97 | 1.6 | 11.3 | 0.00 | 0.51 | 0.18 | 64 | 1011.3 |
| 20260905204546 | 18 | 49 | 0.0 | 6.4 | 0.00 | 0.58 | 0.18 | 62 | 1011.0 |
| 20260905203045 | 18 | 71 | 0.0 | 14.5 | 0.00 | 0.58 | 0.18 | 61 | 1011.0 |
| 20260905201556 | 18 | 316 | 4.8 | 14.5 | 0.00 | 0.58 | 0.18 | 60 | 1010.9 |
| 20260905200046 | 18 | 338 | 0.0 | 9.7 | 0.00 | 0.58 | 0.18 | 63 | 1011.0 |
| 20260905194542 | 17 | 19 | 0.0 | 11.3 | 0.00 | 0.61 | 0.18 | 66 | 1011.1 |
| 20260905193042 | 17 | 277 | 3.2 | 12.9 | 0.00 | 0.61 | 0.18 | 63 | 1011.0 |
| 20260905191540 | 17 | 313 | 1.6 | 9.7 | 0.00 | 0.61 | 0.18 | 66 | 1011.1 |
| 20260905190039 | 17 | 62 | 0.0 | 16.1 | 0.00 | 0.61 | 0.18 | 64 | 1011.1 |
| 20260905184543 | 18 | 90 | 0.0 | 9.7 | 0.00 | 0.61 | 0.18 | 64 | 1011.0 |
| 20260905183038 | 18 | 276 | 0.0 | 16.1 | 0.00 | 0.61 | 0.18 | 61 | 1010.9 |
| 20260905181542 | 20 | 321 | 0.0 | 9.7 | 0.00 | 0.61 | 0.18 | 61 | 1010.8 |
| 20260905180040 | 19 | 96 | 0.0 | 12.9 | 0.00 | 0.61 | 0.18 | 58 | 1010.9 |
| 20260905174534 | 20 | 103 | 1.6 | 16.1 | 0.00 | 0.61 | 0.18 | 61 | 1010.9 |
| 20260905173032 | 18 | 350 | 0.0 | 17.7 | 0.00 | 0.61 | 0.18 | 63 | 1010.9 |
| 20260905171534 | 18 | 314 | 0.0 | 14.5 | 0.00 | 0.61 | 0.18 | 63 | 1010.9 |
| 20260905170030 | 18 | 332 | 6.4 | 16.1 | 0.00 | 0.61 | 0.18 | 64 | 1010.9 |
| 20260905164529 | 17 | 38 | 0.0 | 11.3 | 0.00 | 0.61 | 0.18 | 66 | 1010.8 |
| 20260905163033 | 18 | 309 | 1.6 | 19.3 | 0.00 | 0.61 | 0.18 | 67 | 1010.9 |
| 20260905161528 | 18 | 18 | 3.2 | 14.5 | 0.00 | 0.61 | 0.18 | 67 | 1011.0 |
| 20260905160025 | 18 | 5 | 0.0 | 12.9 | 0.00 | 0.61 | 0.18 | 69 | 1010.9 |
| 20260905154524 | 17 | 349 | 1.6 | 16.1 | 0.00 | 0.61 | 0.18 | 71 | 1011.0 |
| 20260905153025 | 17 | 348 | 0.0 | 11.3 | 0.00 | 0.61 | 0.18 | 72 | 1011.0 |
| 20260905151526 | 17 | 35 | 0.0 | 9.7 | 0.00 | 0.61 | 0.18 | 72 | 1010.9 |
| 20260905150019 | 17 | 281 | 0.0 | 17.7 | 0.00 | 0.61 | 0.18 | 71 | 1010.9 |
| 20260905144518 | 16 | 355 | 3.2 | 20.9 | 0.00 | 0.61 | 0.18 | 71 | 1011.1 |
| 20260905143022 | 16 | 26 | 1.6 | 14.5 | 0.00 | 0.61 | 0.18 | 75 | 1011.0 |
| 20260905141512 | 16 | 84 | 0.0 | 9.7 | 0.00 | 0.61 | 0.18 | 76 | 1010.9 |
| 20260905140011 | 15 | 122 | 4.8 | 16.1 | 0.00 | 0.61 | 0.18 | 76 | 1011.0 |
| 20260905134512 | 15 | 317 | 0.0 | 14.5 | 0.00 | 0.61 | 0.18 | 78 | 1010.8 |
| 20260905133007 | 15 | 88 | 1.6 | 16.1 | 0.00 | 0.61 | 0.18 | 79 | 1010.7 |
| 20260905131507 | 14 | 350 | 4.8 | 14.5 | 0.00 | 0.61 | 0.18 | 80 | 1010.7 |
| 20260905130005 | 14 | 306 | 4.8 | 14.5 | 0.00 | 0.61 | 0.18 | 80 | 1010.8 |
| 20260905124507 | 14 | 309 | 3.2 | 9.7 | 0.00 | 0.61 | 0.18 | 81 | 1010.7 |
| 20260905123009 | 13 | 278 | 0.0 | 11.3 | 0.00 | 0.61 | 0.18 | 82 | 1010.7 |
| 20260905121502 | 13 | 316 | 1.6 | 17.7 | 0.00 | 0.61 | 0.18 | 82 | 1010.6 |
| 20260905120000 | 13 | 285 | 0.0 | 12.9 | 0.00 | 0.64 | 0.18 | 83 | 1010.5 |
| 20260905114600 | 13 | 360 | 0.0 | 9.7 | 0.00 | 0.64 | 0.18 | 83 | 1010.5 |
| 20260905113057 | 13 | 20 | 0.0 | 9.7 | 0.00 | 0.64 | 0.18 | 83 | 1010.3 |
| 20260905111606 | 13 | 16 | 0.0 | 8.0 | 0.00 | 0.64 | 0.18 | 83 | 1010.3 |
| 20260905110059 | 12 | 27 | 0.0 | 14.5 | 0.00 | 0.64 | 0.18 | 84 | 1010.1 |
| 20260905104611 | 12 | 312 | 1.6 | 9.7 | 0.00 | 0.64 | 0.18 | 84 | 1009.8 |
| 20260905103051 | 12 | 299 | 0.0 | 9.7 | 0.00 | 0.64 | 0.18 | 84 | 1009.7 |
| 20260905101551 | 13 | 314 | 0.0 | 9.7 | 0.00 | 0.64 | 0.18 | 84 | 1009.6 |
| 20260905100047 | 13 | 345 | 1.6 | 8.0 | 0.00 | 0.64 | 0.18 | 84 | 1009.4 |
| 20260905094544 | 13 | 311 | 0.0 | 4.8 | 0.00 | 0.64 | 0.18 | 84 | 1009.1 |
| 20260905093042 | 13 | 236 | 0.0 | 8.0 | 0.00 | 0.64 | 0.18 | 85 | 1008.9 |
| 20260905091556 | 13 | 261 | 0.0 | 8.0 | 0.00 | 0.64 | 0.18 | 85 | 1008.8 |